Find Starlink 31500

NORAD ID: 59305 Int'l Des: 2024-056 Owner: SPXS Country: US Constellation: starlink operational
LEOCIRCULAR

Current View

Loading 3D Globe...

About Starlink 31500

Starlink 31500 (NORAD 59305) is a starlink constellation satellite (v2 mini) launched Mar 24, 2024 by SPXS of US. It operates in LEO, CIRCULAR orbit with a mass of 730.00 kg.

About Starlink 31500

Description loading...

Upcoming Passes

Passes for default location (London). Set your location on the main map for personalized predictions.

Altitude History

Loading altitude history...

Two-Line Element Set

1 59305U 24056K 26167.35797007 -.00000512 00000-0 -91044-5 0 9992
2 59305 43.0045 33.5450 0000886 262.8385 97.2366 15.27572075126245
Epoch: Jun 16, 2026 • Age: 30 hours

Current Status

Altitude 492.9 km
Velocity 7.62 km/s
Sub-Earth Point -35.77°S, 141.72°W
Launch Date Mar 24, 2024
Age 2.2 years
Type internet

Technical Details

Classification Payload
Mass 730.00 kg
Dry Mass 700.00 kg
Total Mass 730.00 kg
Length 0.30 m
Diameter 4.10 m
Span 29.00 m
Shape Box + pan
Manufacturer SPXS
Bus Type Starlink V2M
Phase Status In Orbit
Owner/State SPXS/US

Most Searched